Captaciones en Salida Moraleda DX Camp

Fecha UTC KHZ ITU Emisora Detalles IDM SINPO
23/08/2013 1950 15476,0 ATA RN San Gabriel-San Gabriel Musica / ID / Temperatura / FX OM Spa 23332
23/08/2013 2024 6165,0 TCD R.N Djamena-Ndjamena Conversa. 2 Om’s Fre 34333
23/08/2013 2012 15191,2 B R.Inconfidencia-Belo Horizonte MG Com OM/ Musica Brasileña Por 24332
24/08/2013 0024 6135,0 BOL R.Santa Cruz-Santa Cruz Consejos Medicos Spa 34333
24/08/2013 0031 4747,0 PRU R.Huanta 2000-Huanta Com Locutor Spa 24332
24/08/2013 0048 4775,0 PRU R.Tarma-Tarma Musica Andina Spa 34333
24/08/2013 0258 1510,0 USA WRRD-Waukesha Beisbol Esp 33333
24/08/2013 0317 4055,0 GTM Radio Verdad-Chiquimula Tema Musical / Mejor en LSB Spa 24232
24/08/2013 0322 6185,0 MEX XEPPM R.Educacion-Mexico City Cancion Tradicional Spa 33333
24/08/2013 0323 6160,0 CAN CKZN St.Johns-StJohns Com Locutor Eng 23332
24/08/2013 0325 6050,0 EQA HCJB QUITO-Quito-Pifo Com Locutor en Esp Que 33333
24/08/2013 0817 6095,0 D Mighty KBC Radio-Nauen Mx Rock Ger 45444
24/08/2013 0820 7310,0 D Deutsches Radio 700-Kall Mx – Sara – Jefferson Starship Ger 34333
24/08/2013 0824 9580,0 AUS R.AUSTRALIA-Shepparton Com Om / QRM Medi 1 Eng 33333
24/08/2013 0835 9680,0 INS RRI Jakarta-Jakarta-Cimanggis Reportaje YL/Om Ind 34232
24/08/2013 0840 11665,0 MLA RTM Wai/Sarawak FM-Kajang Conversa. Yl/Om Mal 24332
24/08/2013 0857 15195,0 RUS R.TATARSTAN-Samara Relato YL/OM Tat 44444
24/08/2013 0859 15450,0 PHL FEBC Radio-Iba Musica Instrumental / Señal Int. Mon 34333
24/08/2013 1651 9505,0 SDN Voice of Sudan-Al Aitahab Com Locutora Ara 44444
24/08/2013 1702 9525,0 INS VOICE OF INDONESIA-Jakarta-Cimanggis Inicio Emision / ID / Noticias Spa 45444
24/08/2013 1753 7245,0 TJK VOICE OF TAJIK-Dushanbe-Orzu Com YL Per 33333
24/08/2013 1756 7295,0 MLA RTM Traxx FM-Kajang Mx Pop Malaya Eng 34333
24/08/2013 1805 5950,0 ETH VO Tigray Revolution-Addis Ababa-Gedja Mx Tradicional Tig 34333
24/08/2013 1812 6030,0 ETH Radio Oromiya-Addis Ababa-Gedja COm Locutor Afa 34333
24/08/2013 1816 6110,0 ETH R.Fana-Addis Ababa area Pop Etiope Amh 34333
24/08/2013 1924 6423,0 HOL SWCH– Dutch Music Mx 34232
24/08/2013 2224 5952,4 BOL Emisoras Pio XII-Siglo Veinte Com Locutor Spa 24232
24/08/2013 2229 5965,0 MLA RTM Klasik Nasional FM/R.Satu-Kajang Musica Pop Malayo Mal 24232
24/08/2013 2232 6115,0 PHL R.VERITAS ASIA-Palauig-Zambales Conversa. 2 Om’s Chi 34333
24/08/2013 2236 9710,0 CUB R.HABANA CUBA-La Habana Noticias locales Spa 34333
24/08/2013 2238 9765,0 CTR R.EXTERIOR DE ESPANA-Cariari de Pococi Futbol Spa 34333
24/08/2013 2240 11855,0 B R.Aparecida-Aparecida SP ID cantada – Px Rlg OM Por 44444
24/08/2013 2242 11765,0 B R.Tupi/Super R.Deus e Amor-Curitiba PR Predicador/a Por 33333
24/08/2013 2243 11665,0 MLA RTM Wai/Sarawak FM-Kajang Reggae Malayo Mal 34333
25/08/2013 0111 6120,0 B R.Globo/Super R.Deus e Amor-Sao Paulo SP Predicador Por 33333
25/08/2013 0147 7506,0 USA WRNO-New Orleans LA Predicador OM Eng 34333
25/08/2013 0209 5970,0 B R.Itatiaia-Belo Horizonte MG Com Locutora Por 34333
25/08/2013 0212 1530,0 ROU Radio Romania Actualitati-Mihaileni Mx Queen Rou 34333
25/08/2013 0214 6050,0 EQA HCJB QUITO-Quito-Pifo Cancion Tradicional Que 34333
25/08/2013 0215 5920,0 USA WHRI CYPRESS-Cypress Creek Com Om Music Eng 44444
25/08/2013 0216 5830,0 USA WTWW-Lebanon TN Com Om Rlg Eng 44444
25/08/2013 0238 1660,0 USA WWRU-Jersey City Conversa. Om y YL // QRM NOTILUZ Kor 23232

QTH:Moraleda – Granada – España/Spain

Coordenadas:37º 08′ 48” N – 3º 56′ 42” O

RX:Ezcap USB Dongle – RTL2832U+R820T, Kenwood R5000

ANT:Dipolo 110 Mts y Hilo Largo 60 Mts

Hecho con :Log-Report

 

Anuncios


Categorías:Captaciones, MW, SW

Etiquetas:, , , , ,

A %d blogueros les gusta esto: